Terminal Aerodrome Forecast
Issued by NWS

Current Version | Previous Version | Text Only | Print | Product List | Glossary Off
Versions: 1 2 3 4 5 6 7 8 9 10 11 12 13 14 15 16 17 18 19 20 21 22 23

000
FTUS41 KILN 250500
TAFLUK
TAF
KLUK 250530Z 2506/2606 24011KT P6SM BKN020 OVC028
      TEMPO 2506/2508 -RASN
     FM251700 22010KT P6SM SCT022 OVC035
     FM252300 20004KT P6SM SKC=

USA.gov is the U.S. government's official web portal to all federal, state and local government web resources and services.